Regional Weather Roundup
Issued by NWS New Orleans/Baton Rouge, LA

Home | Current Version | Previous Version | Text Only | Print | Product List | Glossary On
Versions: 1 2 3 4 5 6 7 8 9 10 11 12 13 14 15 16 17 18 19 20 21 22 23 24 25 26 27 28 29 30 31 32 33 34 35 36 37 38 39 40 41 42 43 44 45 46 47 48 49 50
000
ASUS44 KLIX 222010
RWRLIX
NEW ORLEANS REGIONAL WEATHER ROUNDUP
NATIONAL WEATHER SERVICE NEW ORLEANS LA
300 PM CDT FRI AUG 22 2014

NOTE: "FAIR" INDICATES FEW OR NO CLOUDS BELOW 12,000 FEET WITH NO
      SIGNIFICANT WEATHER AND/OR OBSTRUCTIONS TO VISIBILITY.
      SKY/WX - SKY CONDITION AND SIGNIFICANT WEATHER.
      TMP - AIR TEMPERATURE.     DP    - DEWPOINT TEMPERATURE.
      RH  - RELATIVE HUMIDITY.   PRES  - PRESSURE.
      HI  - HEAT INDEX.          WCI   - WIND CHILL INDEX.

*  THESE STATIONS ARE NOT NWS OR FAA STATIONS AND ARE NOT UNDER
   NWS QUALITY CONTROL.

LAZ038-040-048-061>063-065>067-069-222100-
SOUTHEAST LOUISIANA

CITY           SKY/WX    TMP DP  RH WIND       PRES   REMARKS
N.O. AUDUBON     N/A     96  74  49 MISG        N/A  HX 106
N.O. INTL ARPT MOSUNNY   92  72  51 N7        30.07F HX  99
N.O. LAKEFRONT SUNNY     89  75  63 NW5       30.07F HX  99
N.O. DOWNTOWN*   N/A     93  70  46 W3        30.07F HX  99
SLIDELL        MOSUNNY   93  71  48 NE3       30.05F HX 100
BATON ROUGE    MOSUNNY   94  72  48 VRB3      30.07F HX 102
BOOTHVILLE     SUNNY     91  76  61 NE6       30.08F HX 103
BELLE CHASSE   PTSUNNY   95  70  44 CALM      30.06F HX 101
BOGALUSA*        N/A     94  72  48 CALM      30.08F HX 102
GALLIANO*      NOT AVBL
NEW ROADS*       N/A     90  73  57 N6        30.07F HX  98
GONZALES*      MOCLDY    92  76  58 NE5       30.06F HX 104
HAMMOND*       MOSUNNY   97  66  36 CALM      30.08F HX 100
HOUMA*         MOSUNNY   97  68  38 CALM      30.06F HX 101
PORT FOURCHON* CLEAR     91  70  49 VRB5G12   30.09S HX  97

$$

MSZ070-080>082-222100-
SOUTHERN MISSISSIPPI

CITY           SKY/WX    TMP DP  RH WIND       PRES   REMARKS
MCCOMB         MOSUNNY   93  70  46 CALM      30.08F HX  99
GULFPORT       SUNNY     94  75  54 S8        30.04F HX 105
BILOXI         SUNNY     95  75  52 SW8       30.05F HX 107
PASCAGOULA     PTSUNNY   93  71  48 CALM      30.04F HX 100
STENNIS ARPT*  MOSUNNY  N/A N/A N/A CALM      30.05F

$$

COASTAL OBSERVATIONS
LAKE AND NEARSHORE STATIONS

STATION/POSITION TIME  TEMP    WIND        PRES    WAVE
                       AIR SEA DIR/SP/G            HT/PER
                 (UTC) (F)     (DEG/KT/KT) (MB)    (FT/S)
PASCAGOULA       2000   92     190/  8/ 11 1017.3
WAVELAND YACHT   2000   90     190/  6/  9 1017.3
GRAND ISLE       2000   91 90  360/  4/  6 1019.0
SOUTHWEST PASS   2000   96 89   80/  5/  9 1018.7
NEW CANAL        2000   87 86  340/  3/  4 1018.8
SHELL BEACH      2000   87 83  330/  4/  5 1018.2

OFFSHORE STATIONS

STATION/POSITION TIME  TEMP    WIND        PRES    WAVE
                       AIR SEA DIR/SP/G            HT/PER
                 (UTC) (F)     (DEG/KT/KT) (MB)    (FT/S)
64 S DAUPHIN ISL 1858   86 90   30/  8/ 10 1018.4

$$




USA.gov is the U.S. government's official web portal to all federal, state and local government web resources and services.